Wadena, MN

10:25 PM CDT on April 21, 2018 (GMT -0500)
Wadena Municipal

Weather History for KADC - March, 2014

Change the Weather History Date:

Sunday, March 9, 2014

  Actual Average Record
Temperature  
Mean Temperature 28 °F -  
Max Temperature 42 °F 32 °F 50 °F (2015)
Min Temperature 15 °F 9 °F -19 °F (1948)
Degree Days  
Heating Degree Days 36    
Moisture  
Dew Point 26 °F    
Average Humidity 75    
Maximum Humidity 93    
Minimum Humidity 61    
Precipitation  
Precipitation 0.00 in - - ()
Sea Level Pressure  
Sea Level Pressure 29.69 in    
Wind  
Wind Speed 8 mph (SW)    
Max Wind Speed 13 mph    
Max Gust Speed 17 mph    
Visibility 10 miles    
Events      
Averages and records for this station are not official NWS values.
T = Trace of Precipitation, MM = Missing Value Source: NWS Daily Summary

Daily Weather History Graph

Daily Weather History Graph

Search for Another Location

Airport or City:

Astronomy

Mar. 09, 2014 Rise Set
Actual Time 7:45 AM CDT 7:18 PM CDT
Civil Twilight 7:15 AM CDT 7:48 PM CDT
Nautical Twilight 6:40 AM CDT 8:23 PM CDT
Astronomical Twilight 6:04 AM CDT 8:58 PM CDT
Moon 12:57 PM CDT (3/9) 3:26 AM CDT (3/9)
Length of Visible Light 12h 33m
Length of Day
11h 33m
First Quarter, 61% of the Moon is Illuminated
Mar 9
First Quarter
Mar 16
Full
Mar 23
Last Quarter
Mar 30
New
Apr 7
First Quarter

Hourly Weather History & Observations

Time (CDT) Temp. Windchill Dew Point Humidity Pressure Visibility Wind Dir Wind Speed Gust Speed Precip Events Conditions
12:14 AM 15.8 °F 7.2 °F 12.2 °F 86% 29.99 in 10.0 mi South 5.8 mph - N/A   Clear
12:34 AM 15.8 °F 6.1 °F 12.2 °F 86% 29.98 in 10.0 mi South 6.9 mph - N/A   Clear
12:53 AM 17.6 °F 6.4 °F 14.0 °F 86% 29.96 in 10.0 mi South 9.2 mph - N/A   Clear
1:15 AM 19.4 °F 7.9 °F 15.8 °F 86% 29.94 in 10.0 mi South 10.4 mph - N/A   Clear
1:35 AM 19.4 °F 8.6 °F 15.8 °F 86% 29.93 in 10.0 mi South 9.2 mph - N/A   Clear
1:53 AM 19.4 °F 8.6 °F 14.0 °F 80% 29.92 in 10.0 mi South 9.2 mph - N/A   Clear
3:15 AM 19.4 °F 8.6 °F 14.0 °F 80% 29.90 in 10.0 mi South 9.2 mph - N/A   Clear
3:34 AM 19.4 °F 9.5 °F 14.0 °F 80% 29.88 in 10.0 mi South 8.1 mph - N/A   Clear
3:43 AM 19.4 °F 7.9 °F 14.0 °F 80% 29.87 in 10.0 mi South 10.4 mph - N/A   Clear
4:01 AM 19.4 °F 7.9 °F 15.8 °F 86% 29.85 in 10.0 mi South 10.4 mph - N/A   Clear
4:21 AM 21.2 °F 12.6 °F 15.8 °F 80% 29.84 in 10.0 mi SSW 6.9 mph - N/A   Clear
4:45 AM 24.8 °F 15.3 °F 17.6 °F 74% 29.83 in 10.0 mi SSW 9.2 mph - N/A   Clear
4:46 AM 24.8 °F 14.6 °F 17.6 °F 74% 29.83 in 10.0 mi SSW 10.4 mph - N/A   Clear
5:14 AM 24.8 °F 13.4 °F 17.6 °F 74% 29.81 in 10.0 mi SSW 12.7 mph - N/A   Clear
5:35 AM 24.8 °F 14.6 °F 17.6 °F 74% 29.80 in 10.0 mi SSW 10.4 mph - N/A   Clear
5:53 AM 24.8 °F 14.0 °F 19.4 °F 80% 29.79 in 10.0 mi SSW 11.5 mph - N/A   Clear
6:15 AM 24.8 °F 14.6 °F 19.4 °F 80% 29.77 in 10.0 mi SSW 10.4 mph - N/A   Clear
6:35 AM 26.6 °F 15.7 °F 19.4 °F 74% 29.75 in 10.0 mi SSW 12.7 mph - N/A   Clear
6:53 AM 26.6 °F 15.7 °F 21.2 °F 80% 29.74 in 10.0 mi SSW 12.7 mph - N/A   Clear
7:15 AM 28.4 °F 18.5 °F 21.2 °F 74% 29.72 in 10.0 mi SSW 11.5 mph - N/A   Clear
7:35 AM 28.4 °F 19.1 °F 21.2 °F 74% 29.72 in 10.0 mi SSW 10.4 mph - N/A   Clear
7:53 AM 28.4 °F 19.7 °F 21.2 °F 74% 29.71 in 10.0 mi SSW 9.2 mph - N/A   Clear
8:14 AM 28.4 °F 20.4 °F 21.2 °F 74% 29.71 in 10.0 mi SSW 8.1 mph - N/A   Clear
8:34 AM 28.4 °F 19.7 °F 23.0 °F 80% 29.69 in 10.0 mi SSW 9.2 mph - N/A   Clear
8:53 AM 30.2 °F 25.4 °F 23.0 °F 75% 29.68 in 10.0 mi SSW 4.6 mph - N/A   Clear
9:15 AM 33.8 °F 29.6 °F 24.8 °F 70% 29.68 in 10.0 mi SW 4.6 mph - N/A   Clear
9:35 AM 35.6 °F 30.7 °F 26.6 °F 70% 29.66 in 10.0 mi SW 5.8 mph - N/A   Clear
9:53 AM 37.4 °F 30.8 °F 28.4 °F 70% 29.66 in 10.0 mi WSW 9.2 mph - N/A   Clear
10:15 AM 37.4 °F 31.4 °F 28.4 °F 70% 29.66 in 10.0 mi WSW 8.1 mph - N/A   Clear
10:35 AM 37.4 °F 29.8 °F 28.4 °F 70% 29.65 in 10.0 mi WSW 11.5 mph - N/A   Clear
10:53 AM 37.4 °F 29.8 °F 28.4 °F 70% 29.65 in 10.0 mi SW 11.5 mph - N/A   Clear
11:15 AM 37.4 °F 30.8 °F 28.4 °F 70% 29.65 in 10.0 mi WSW 9.2 mph - N/A   Clear
11:34 AM 39.2 °F 32.5 °F 28.4 °F 65% 29.64 in 10.0 mi WSW 10.4 mph - N/A   Clear
11:53 AM 39.2 °F 32.5 °F 28.4 °F 65% 29.64 in 10.0 mi SW 10.4 mph - N/A   Clear
12:14 PM 39.2 °F 33.0 °F 28.4 °F 65% 29.64 in 10.0 mi WSW 9.2 mph 16.1 mph N/A   Clear
12:34 PM 39.2 °F 32.5 °F 28.4 °F 65% 29.65 in 10.0 mi WSW 10.4 mph - N/A   Clear
12:53 PM 41.0 °F 35.2 °F 30.2 °F 65% 29.63 in 10.0 mi WSW 9.2 mph - N/A   Clear
1:14 PM 41.0 °F 34.7 °F 30.2 °F 65% 29.63 in 10.0 mi West 10.4 mph - N/A   Clear
1:35 PM 42.8 °F 36.2 °F 30.2 °F 61% 29.63 in 10.0 mi West 12.7 mph - N/A   Clear
1:53 PM 41.0 °F 33.9 °F 30.2 °F 65% 29.62 in 10.0 mi West 12.7 mph - N/A   Clear
2:15 PM 41.0 °F 34.3 °F 30.2 °F 65% 29.62 in 10.0 mi West 11.5 mph - N/A   Clear
2:35 PM 41.0 °F 35.2 °F 30.2 °F 65% 29.61 in 10.0 mi West 9.2 mph - N/A   Clear
2:52 PM 41.0 °F 34.7 °F 30.2 °F 65% 29.61 in 10.0 mi West 10.4 mph - N/A   Clear
3:14 PM 41.0 °F 34.3 °F 30.2 °F 65% 29.61 in 10.0 mi West 11.5 mph 17.3 mph N/A   Clear
3:34 PM 41.0 °F 34.3 °F 30.2 °F 65% 29.61 in 10.0 mi West 11.5 mph - N/A   Clear
3:53 PM 41.0 °F 34.7 °F 30.2 °F 65% 29.60 in 10.0 mi WSW 10.4 mph - N/A   Clear
4:15 PM 41.0 °F 35.2 °F 30.2 °F 65% 29.60 in 10.0 mi WSW 9.2 mph - N/A   Clear
4:35 PM 39.2 °F 32.5 °F 30.2 °F 70% 29.60 in 10.0 mi WSW 10.4 mph - N/A   Clear
4:53 PM 39.2 °F 32.5 °F 30.2 °F 70% 29.61 in 10.0 mi West 10.4 mph - N/A   Clear
5:15 PM 39.2 °F 33.0 °F 30.2 °F 70% 29.60 in 10.0 mi WSW 9.2 mph - N/A   Clear
5:35 PM 39.2 °F 32.0 °F 30.2 °F 70% 29.61 in 10.0 mi West 11.5 mph - N/A   Clear
5:53 PM 39.2 °F 32.5 °F 30.2 °F 70% 29.62 in 10.0 mi West 10.4 mph - N/A   Clear
6:15 PM 39.2 °F 32.5 °F 30.2 °F 70% 29.62 in 10.0 mi WSW 10.4 mph - N/A   Clear
6:35 PM 39.2 °F 33.6 °F 30.2 °F 70% 29.62 in 10.0 mi West 8.1 mph - N/A   Clear
6:53 PM 39.2 °F 34.2 °F 30.2 °F 70% 29.61 in 10.0 mi WSW 6.9 mph - N/A   Clear
7:15 PM 39.2 °F 35.0 °F 30.2 °F 70% 29.62 in 10.0 mi WSW 5.8 mph - N/A   Clear
7:34 PM 37.4 °F 32.1 °F 30.2 °F 75% 29.62 in 10.0 mi WSW 6.9 mph - N/A   Clear
7:53 PM 37.4 °F 32.8 °F 30.2 °F 75% 29.63 in 10.0 mi West 5.8 mph - N/A   Clear
8:15 PM 37.4 °F 33.8 °F 30.2 °F 75% 29.63 in 10.0 mi WSW 4.6 mph - N/A   Clear
8:35 PM 37.4 °F 33.8 °F 30.2 °F 75% 29.62 in 10.0 mi WSW 4.6 mph - N/A   Clear
8:52 PM 37.4 °F 34.9 °F 30.2 °F 75% 29.62 in 10.0 mi WSW 3.5 mph - N/A   Clear
9:14 PM 37.4 °F 32.8 °F 30.2 °F 75% 29.61 in 10.0 mi SW 5.8 mph - N/A   Clear
9:34 PM 37.4 °F 34.9 °F 30.2 °F 75% 29.61 in 10.0 mi SW 3.5 mph - N/A   Scattered Clouds
9:53 PM 35.6 °F 30.7 °F 30.2 °F 81% 29.61 in 10.0 mi SW 5.8 mph - N/A   Clear
10:15 PM 37.4 °F 33.8 °F 30.2 °F 75% 29.61 in 10.0 mi SW 4.6 mph - N/A   Clear
10:34 PM 35.6 °F - 30.2 °F 81% 29.61 in 10.0 mi Calm Calm - N/A   Clear
10:53 PM 35.6 °F - 30.2 °F 81% 29.61 in 10.0 mi Calm Calm - N/A   Clear
11:15 PM 33.8 °F 28.6 °F 30.2 °F 87% 29.61 in 10.0 mi SW 5.8 mph - N/A   Clear
11:35 PM 35.6 °F 32.8 °F 32.0 °F 87% 29.60 in 10.0 mi SW 3.5 mph - N/A   Clear
11:52 PM 33.8 °F 30.8 °F 30.2 °F 87% 29.59 in 10.0 mi SSW 3.5 mph - N/A   Clear
12:15 AM 30.2 °F 26.7 °F 28.4 °F 93% 29.59 in 10.0 mi SW 3.5 mph - N/A   Clear
12:35 AM 33.8 °F 29.6 °F 30.2 °F 87% 29.59 in 10.0 mi SW 4.6 mph - N/A   Clear
12:53 AM 33.8 °F 30.8 °F 30.2 °F 87% 29.59 in 10.0 mi SW 3.5 mph - N/A   Clear